sat.trackr.live / text

‹ back to catalog

CLUSTER II-FM7 (SAMBA)

NORAD 26410 · 2000-041A

PAYLOAD ACTIVE UNKNOWN

§ Identity

Operator
Country
ESA
Launch date
2000-07-16
Launch site
TYMSC
Launch vehicle
Mass (kg)
RCS (m²)
2.00

Purposes: science

External: N2YO · Heavens-Above · Gunter

§ Orbital elements

Epoch: 2026-05-25T19:50:48.086880Z

Period
3,212.27 min
Inclination
149.8709°
Eccentricity
0.9027611
Mean motion
0.44828092 rev/d
Perigee alt
634.4 km
Apogee alt
130,842.4 km
Semi-major
72,116.6 km
B*
0.0000e+0
RAAN
46.8596°
Arg perigee
263.7467°
Mean anomaly
0.1458°
Rev number
2,021

§ Raw data

CLUSTER II-FM7 (SAMBA)1 26410U 00041A   26145.82694545  .00003090  00000+0  00000+0 0  99992 26410 149.8709  46.8596 9027611 263.7467   0.1458  0.44828092 20212

JSON: /api/v1/satellites/26410 · /tle

For live sub-satellite position, see the globe view (requires WebGL).

§ Visibility from observer

Set your observer location to see the next 7 days of passes ≥ 10°. The values pass through the URL so the page stays shareable.

No JS? Fill the form by hand. The geolocation button needs JavaScript.

§ Radio — SatNOGS DB

ModeDescriptionDownlinkUplink
FM S-band 2.277 GHz

1 transmitter · refreshed weekly from db.satnogs.org